"Date","subscriberCount","subscriberChange","viewCount","viewChange","videoCount","videoChange","commentCount","commentChange"
"2020-10-15 00:02:05","487000","1000","220101619","122","391","1","0","0"
"2020-10-16 00:02:05","487000","0","220959986","858367","391","0","0","0"
"2020-10-17 00:02:04","488000","1000","221278349","318363","391","0","0","0"
"2020-10-18 00:02:05","488000","0","221593209","314860","392","1","0","0"
"2020-10-19 00:02:05","489000","1000","222028881","435672","392","0","0","0"
"2020-10-20 00:02:05","489000","0","222302089","273208","393","1","0","0"
"2020-10-21 00:02:04","490000","1000","222831922","529833","394","1","0","0"
"2020-10-22 00:02:04","490000","0","223295150","463228","395","1","0","0"
"2020-10-23 00:02:06","491000","1000","223847646","552496","395","0","0","0"
"2020-10-24 00:02:05","491000","0","224145352","297706","395","0","0","0"
"2020-10-25 00:02:05","491000","0","224326605","181253","396","1","0","0"
"2020-10-27 00:02:04","492000","1000","225199291","872686","395","-1","0","0"
"2020-10-28 00:02:04","493000","1000","223935193","-1264098","395","0","0","0"
"2020-10-29 00:02:04","493000","0","224149627","214434","396","1","","0"
"2020-10-30 00:02:03","493000","0","224541728","392101","396","0","","0"
"2020-10-31 00:02:05","494000","1000","224727620","185892","397","1","0","0"
"2020-11-01 00:02:04","494000","0","225156878","429258","398","1","0","0"
"2020-11-02 00:02:02","495000","1000","225806813","649935","398","0","","0"
"2020-11-03 00:02:04","495000","0","226183509","376696","399","1","0","0"
"2020-11-04 00:02:04","496000","1000","226752602","569093","399","0","","0"
"2020-11-05 00:02:06","496000","0","227020419","267817","400","1","0","0"
"2020-11-06 00:02:05","497000","1000","227551334","530915","401","1","0","0"
"2020-11-07 00:02:06","497000","0","228023078","471744","402","1","0","0"
"2020-11-08 00:02:05","498000","1000","228598575","575497","402","0","0","0"
"2020-11-09 00:02:06","499000","1000","228948231","349656","402","0","","0"
"2020-11-10 00:02:05","499000","0","229246736","298505","403","1","","0"
"2020-11-11 00:02:05","500000","1000","229637040","390304","404","1","","0"
"2020-11-12 00:02:03","501000","1000","230253466","616426","403","-1","","0"
"2020-11-13 00:02:03","501000","0","230558621","305155","405","2","","0"
"2020-11-14 00:02:02","502000","1000","231134603","575982","406","1","","0"
"2020-11-15 00:02:03","502000","0","231645603","511000","407","1","","0"
"2020-11-16 00:02:04","503000","1000","232118975","473372","407","0","","0"
"2020-11-17 00:02:02","504000","1000","232408810","289835","408","1","","0"
"2020-11-18 00:02:03","504000","0","232905300","496490","408","0","","0"
"2020-11-19 00:02:02","505000","1000","233188734","283434","409","1","","0"
"2020-11-20 00:02:03","505000","0","233685336","496602","410","1","","0"
"2020-11-21 00:02:02","506000","1000","234294971","609635","411","1","","0"
"2020-11-22 00:02:03","506000","0","234924475","629504","412","1","","0"
"2020-11-23 00:02:03","507000","1000","235409195","484720","413","1","","0"
"2020-11-24 00:02:03","509000","2000","236007197","598002","413","0","","0"
"2020-11-25 00:02:03","510000","1000","236408503","401306","414","1","","0"
"2020-11-26 00:02:03","512000","2000","237119669","711166","415","1","","0"
"2020-11-27 00:02:03","515000","3000","237911994","792325","415","0","","0"
"2020-11-28 00:02:03","516000","1000","238377986","465992","416","1","","0"
"2020-11-29 00:02:03","518000","2000","238932865","554879","416","0","","0"
"2020-11-30 00:02:03","519000","1000","239351655","418790","416","0","","0"
"2020-12-01 00:02:03","519000","0","239659470","307815","417","1","","0"
"2020-12-02 00:02:03","520000","1000","240155102","495632","418","1","","0"
"2020-12-03 00:02:03","521000","1000","240804028","648926","418","0","","0"
"2020-12-04 00:02:03","521000","0","241219478","415450","419","1","","0"
"2020-12-05 00:02:06","522000","1000","241607082","387604","420","1","","0"
"2020-12-06 00:02:03","522000","0","242090672","483590","420","0","","0"
"2020-12-07 00:02:03","523000","1000","242444822","354150","421","1","","0"
"2020-12-08 00:02:03","524000","1000","242936485","491663","421","0","","0"
"2020-12-09 00:02:03","524000","0","243257498","321013","422","1","","0"
"2020-12-10 00:02:03","525000","1000","243768406","510908","422","0","","0"
"2020-12-11 00:02:03","525000","0","244044141","275735","422","0","","0"
"2020-12-12 00:02:04","526000","1000","244516427","472286","423","1","","0"
"2020-12-13 00:02:04","527000","1000","244487490","-28937","423","0","","0"
"2020-12-14 00:02:04","528000","1000","244870918","383428","424","1","","0"
"2020-12-15 00:02:05","528000","0","245411265","540347","424","0","","0"
"2020-12-16 00:02:04","529000","1000","245722072","310807","424","0","","0"
"2020-12-17 00:02:04","529000","0","245974323","252251","424","0","","0"
"2020-12-18 00:02:04","530000","1000","246433482","459159","424","0","","0"
"2020-12-19 00:02:04","530000","0","246414360","-19122","425","1","","0"
"2020-12-20 00:02:04","531000","1000","246806028","391668","425","0","","0"
"2020-12-21 00:02:04","532000","1000","246834146","28118","426","1","","0"
"2020-12-22 00:02:03","532000","0","247263594","429448","426","0","","0"
"2020-12-23 00:02:03","533000","1000","247540251","276657","427","1","","0"
"2020-12-24 00:02:04","533000","0","247918083","377832","428","1","","0"
"2020-12-25 00:02:04","533000","0","248288191","370108","429","1","","0"
"2020-12-26 00:02:03","534000","1000","248691506","403315","430","1","","0"
"2020-12-27 00:02:03","534000","0","249019302","327796","427","-3","","0"
"2020-12-28 00:02:04","535000","1000","249402578","383276","427","0","","0"
"2020-12-29 00:02:04","535000","0","247024960","-2377618","428","1","","0"
"2020-12-30 00:02:03","536000","1000","247484480","459520","428","0","","0"
"2020-12-31 00:02:03","536000","0","247811235","326755","429","1","","0"
"2021-01-01 00:02:04","537000","1000","248063622","252387","430","1","","0"
"2021-01-02 00:02:05","537000","0","248306887","243265","430","0","","0"
"2021-01-03 00:02:05","537000","0","248518870","211983","430","0","","0"
"2021-01-04 00:02:05","538000","1000","248749942","231072","431","1","","0"
"2021-01-05 00:02:06","538000","0","249193688","443746","431","0","","0"
"2021-01-06 00:02:05","539000","1000","249438200","244512","432","1","","0"
"2021-01-07 00:02:02","539000","0","249783501","345301","433","1","","0"
"2021-01-08 00:02:03","539000","0","250125892","342391","434","1","","0"
"2021-01-09 00:02:02","539000","0","250492712","366820","435","1","","0"
"2021-01-10 00:02:03","540000","1000","250912362","419650","436","1","","0"
"2021-01-11 00:02:03","540000","0","251369117","456755","436","0","","0"
"2021-01-12 00:02:03","541000","1000","251640155","271038","437","1","","0"
"2021-01-13 00:02:03","541000","0","252023592","383437","437","0","","0"
"2021-01-14 00:02:02","541000","0","252559923","536331","437","0","","0"
"2021-01-15 00:02:03","542000","1000","252318561","-241362","439","2","","0"
"2021-01-16 00:02:03","542000","0","252940877","622316","441","2","","0"
"2021-01-17 00:02:03","544000","2000","253748279","807402","443","2","","0"
"2021-01-18 00:02:04","545000","1000","254458651","710372","444","1","","0"
"2021-01-19 00:02:02","546000","1000","254986884","528233","446","2","","0"
"2021-01-20 00:02:03","546000","0","255566563","579679","446","0","","0"
"2021-01-21 00:02:03","547000","1000","255938835","372272","447","1","","0"
"2021-01-22 00:02:02","548000","1000","256281187","342352","448","1","","0"
"2021-01-23 00:02:03","548000","0","256791055","509868","450","2","","0"
"2021-01-24 00:02:02","549000","1000","257352512","561457","451","1","","0"
"2021-01-25 00:02:03","550000","1000","258006443","653931","452","1","","0"
"2021-01-26 00:02:03","551000","1000","258673771","667328","453","1","","0"
"2021-01-27 00:02:03","552000","1000","259217816","544045","454","1","","0"
"2021-01-28 00:02:03","552000","0","259736583","518767","455","1","","0"
"2021-01-29 00:02:03","553000","1000","260256319","519736","455","0","","0"
"2021-01-30 00:02:03","554000","1000","260643902","387583","456","1","","0"
"2021-01-31 00:02:02","554000","0","261177205","533303","457","1","","0"
"2021-02-01 00:02:03","555000","1000","261760669","583464","458","1","","0"
"2021-02-02 00:02:03","556000","1000","262225877","465208","459","1","","0"
"2021-02-03 00:02:03","556000","0","262793872","567995","460","1","","0"
"2021-02-04 00:02:03","557000","1000","263307537","513665","461","1","","0"
"2021-02-05 00:02:03","557000","0","263812100","504563","462","1","","0"
"2021-02-06 00:02:03","558000","1000","264372297","560197","461","-1","","0"
"2021-02-07 00:02:03","558000","0","264722444","350147","463","2","","0"
"2021-02-08 00:02:03","559000","1000","265377594","655150","463","0","","0"
"2021-02-09 00:02:03","560000","1000","265733862","356268","464","1","","0"
"2021-02-10 00:02:03","560000","0","266278112","544250","465","1","","0"
"2021-02-11 00:02:03","561000","1000","266802476","524364","465","0","","0"
"2021-02-12 00:02:02","561000","0","267276462","473986","466","1","","0"
"2021-02-13 00:02:03","562000","1000","267810402","533940","467","1","","0"
"2021-02-14 00:02:03","562000","0","268333596","523194","467","0","","0"
"2021-02-15 00:02:02","563000","1000","268661097","327501","468","1","","0"
"2021-02-16 00:02:03","563000","0","269132489","471392","469","1","","0"
"2021-02-17 00:02:02","564000","1000","269627830","495341","469","0","","0"
"2021-02-18 00:02:03","564000","0","269946257","318427","470","1","","0"
"2021-02-19 00:02:02","564000","0","270371768","425511","471","1","","0"
"2021-02-20 00:02:03","565000","1000","270792366","420598","472","1","","0"
"2021-02-21 00:02:03","565000","0","271274826","482460","473","1","","0"
"2021-02-22 00:02:03","565000","0","271649670","374844","474","1","","0"
"2021-02-23 00:02:02","566000","1000","272074097","424427","474","0","","0"
"2021-02-24 00:02:03","566000","0","272366983","292886","475","1","","0"
"2021-02-25 00:02:02","566000","0","272771553","404570","476","1","","0"
"2021-02-26 00:02:03","566000","0","273255083","483530","477","1","","0"
"2021-02-27 00:02:02","567000","1000","273666804","411721","477","0","","0"
"2021-02-28 00:02:03","567000","0","273964275","297471","477","0","","0"
"2021-03-01 00:02:02","568000","1000","274252661","288386","478","1","","0"
"2021-03-02 00:02:03","568000","0","274634666","382005","478","0","","0"
"2021-03-03 00:02:03","568000","0","274939829","305163","479","1","","0"
"2021-03-04 00:02:02","569000","1000","275296879","357050","479","0","","0"
"2021-03-05 00:02:03","569000","0","275361913","65034","480","1","","0"
"2021-03-06 00:02:03","569000","0","275623095","261182","480","0","","0"
"2021-03-07 00:02:03","569000","0","275932085","308990","480","0","","0"
"2021-03-08 00:02:03","570000","1000","276231343","299258","480","0","","0"
"2021-03-09 00:02:02","570000","0","276052700","-178643","480","0","","0"
"2021-03-10 00:02:03","570000","0","276250079","197379","481","1","","0"
"2021-03-11 00:02:02","570000","0","276486254","236175","482","1","","0"
"2021-03-12 00:02:03","570000","0","276757727","271473","482","0","","0"
"2021-03-13 00:02:03","570000","0","276978149","220422","483","1","","0"
"2021-03-14 00:02:03","569000","-1000","277243688","265539","484","1","","0"
"2021-03-15 00:02:03","569000","0","277559879","316191","484","0","","0"
"2021-03-16 00:02:02","569000","0","277847345","287466","485","1","","0"
"2021-03-17 00:02:03","568000","-1000","278077715","230370","486","1","","0"
"2021-03-18 00:02:02","568000","0","278308128","230413","486","0","","0"
"2021-03-19 00:02:03","568000","0","278529026","220898","487","1","","0"
"2021-03-20 00:02:02","568000","0","278735526","206500","487","0","","0"
"2021-03-21 00:02:03","568000","0","278966703","231177","487","0","","0"
"2021-03-22 00:02:02","569000","1000","279120036","153333","488","1","","0"
"2021-03-23 00:02:03","569000","0","279371968","251932","487","-1","","0"
"2021-03-24 00:02:03","569000","0","279597013","225045","488","1","","0"
"2021-03-25 00:02:02","569000","0","279753424","156411","488","0","","0"
"2021-03-26 00:02:03","570000","1000","279888327","134903","489","1","","0"
"2021-03-27 00:02:02","569000","-1000","280003652","115325","489","0","","0"
"2021-03-28 00:02:03","569000","0","280209453","205801","489","0","","0"
"2021-03-29 00:02:03","570000","1000","280342845","133392","489","0","","0"
"2021-03-30 00:02:03","569000","-1000","280487436","144591","490","1","","0"
"2021-03-31 00:02:02","570000","1000","280652699","165263","490","0","","0"
"2021-04-01 00:02:03","570000","0","280879025","226326","491","1","","0"
"2021-04-02 00:02:02","570000","0","281061175","182150","491","0","","0"
"2021-04-03 00:02:02","570000","0","281212760","151585","492","1","","0"
"2021-04-04 00:02:03","570000","0","281371070","158310","492","0","","0"
"2021-04-05 00:02:03","570000","0","281529803","158733","492","0","","0"
"2021-04-06 00:02:03","570000","0","281645427","115624","493","1","","0"
"2021-04-07 00:02:03","569000","-1000","281816900","171473","493","0","","0"
"2021-04-08 00:02:03","569000","0","281987189","170289","494","1","","0"
"2021-04-09 00:02:03","569000","0","282182227","195038","494","0","","0"
"2021-04-10 00:02:03","569000","0","282366269","184042","494","0","","0"
"2021-04-11 00:02:04","569000","0","282526863","160594","495","1","","0"
"2021-04-12 00:02:02","569000","0","282519272","-7591","496","1","","0"
"2021-04-13 00:02:03","569000","0","282833346","314074","497","1","","0"
"2021-04-14 00:02:03","569000","0","283157940","324594","497","0","","0"
"2021-04-15 00:02:03","569000","0","283358060","200120","498","1","","0"
"2021-04-16 00:02:04","568000","-1000","283553331","195271","499","1","","0"
"2021-04-17 00:02:03","568000","0","283840089","286758","499","0","","0"
"2021-04-18 00:02:03","569000","1000","284048916","208827","500","1","","0"
"2021-04-19 00:02:04","569000","0","284680310","631394","501","1","","0"
"2021-04-20 00:02:03","569000","0","285301492","621182","501","0","","0"
"2021-04-21 00:02:03","569000","0","285849886","548394","502","1","","0"
"2021-04-22 00:02:03","569000","0","286174066","324180","502","0","","0"
"2021-04-23 00:02:03","569000","0","286631596","457530","502","0","","0"
"2021-04-24 00:02:03","569000","0","287004164","372568","502","0","","0"
"2021-04-25 00:02:04","569000","0","287475553","471389","503","1","","0"
"2021-04-26 00:02:04","570000","1000","288667658","1192105","503","0","","0"
"2021-04-27 00:02:03","570000","0","289947525","1279867","503","0","","0"
"2021-04-28 00:02:03","570000","0","290959557","1012032","504","1","","0"
"2021-04-29 00:02:03","570000","0","291589134","629577","504","0","","0"
"2021-04-30 00:02:03","571000","1000","292201105","611971","505","1","","0"
"2021-05-01 00:02:04","571000","0","292879295","678190","506","1","","0"
"2021-05-02 00:02:03","571000","0","293230303","351008","506","0","","0"
"2021-05-03 00:02:04","571000","0","293636596","406293","506","0","","0"
"2021-05-04 00:02:04","571000","0","293876783","240187","507","1","","0"
"2021-05-05 00:02:03","571000","0","294235036","358253","508","1","","0"
"2021-05-06 00:02:03","571000","0","294596946","361910","509","1","","0"
"2021-05-07 00:02:04","571000","0","295043989","447043","510","1","","0"
"2021-05-08 00:02:04","571000","0","295356843","312854","511","1","","0"
"2021-05-09 00:02:02","572000","1000","295710743","353900","511","0","","0"
"2021-05-10 00:02:04","572000","0","296125649","414906","512","1","","0"
"2021-05-11 00:02:03","572000","0","296604234","478585","513","1","","0"
"2021-05-12 00:02:04","572000","0","297025919","421685","513","0","","0"
"2021-05-13 00:02:03","572000","0","297472381","446462","514","1","","0"
"2021-05-14 00:02:04","572000","0","297829807","357426","515","1","","0"
"2021-05-15 00:02:04","572000","0","298321663","491856","515","0","","0"
"2021-05-16 00:02:04","572000","0","298599924","278261","516","1","","0"
"2021-05-17 00:02:03","573000","1000","298916530","316606","516","0","","0"
"2021-05-18 00:02:04","573000","0","299247064","330534","517","1","","0"
"2021-05-19 00:02:03","573000","0","299538885","291821","517","0","","0"
"2021-05-20 00:02:03","573000","0","299862874","323989","518","1","","0"
"2021-05-21 00:02:03","573000","0","300198566","335692","518","0","","0"
"2021-05-22 00:02:03","573000","0","300529579","331013","519","1","","0"
"2021-05-23 00:02:04","573000","0","300822907","293328","520","1","","0"
"2021-05-24 00:02:04","573000","0","301206255","383348","520","0","","0"
"2021-05-25 00:02:04","573000","0","301449638","243383","520","0","","0"
"2021-05-26 00:02:03","573000","0","301853555","403917","520","0","","0"
"2021-05-27 00:02:03","574000","1000","302375078","521523","521","1","","0"
"2021-05-28 00:02:03","574000","0","303190006","814928","522","1","","0"
"2021-05-29 00:02:04","574000","0","304065877","875871","523","1","","0"
"2021-05-30 00:02:04","574000","0","304771689","705812","523","0","","0"
"2021-05-31 00:02:03","575000","1000","305371067","599378","523","0","","0"
"2021-06-01 00:02:03","575000","0","305775822","404755","523","0","","0"
"2021-06-02 00:02:02","575000","0","306162915","387093","523","0","","0"
"2021-06-03 00:02:03","575000","0","306409334","246419","523","0","","0"
"2021-06-04 00:02:03","575000","0","306676148","266814","523","0","","0"
"2021-06-05 00:02:03","575000","0","306926488","250340","523","0","","0"
"2021-06-06 00:02:03","575000","0","307163544","237056","524","1","","0"
"2021-06-07 00:02:02","575000","0","307508765","345221","524","0","","0"
"2021-06-08 00:02:03","575000","0","307994573","485808","524","0","","0"
"2021-06-09 00:02:02","575000","0","308280469","285896","524","0","","0"
"2021-06-10 00:02:02","575000","0","308522187","241718","524","0","","0"
"2021-06-11 00:02:03","575000","0","308762859","240672","524","0","","0"
"2021-06-12 00:02:03","575000","0","309090354","327495","524","0","","0"
"2021-06-13 00:02:03","576000","1000","309404664","314310","524","0","","0"
"2021-06-14 00:02:02","576000","0","309806697","402033","524","0","","0"
"2021-06-15 00:02:03","576000","0","310230453","423756","524","0","","0"
"2021-06-16 00:02:03","576000","0","310560832","330379","523","-1","","0"
"2021-06-17 00:02:02","576000","0","310919302","358470","523","0","","0"
"2021-06-18 00:02:02","576000","0","311250824","331522","523","0","","0"
"2021-06-19 00:02:03","576000","0","311286993","36169","523","0","","0"
"2021-06-20 00:02:03","576000","0","311575778","288785","523","0","","0"
"2021-06-21 00:02:03","576000","0","312035797","460019","523","0","","0"
"2021-06-22 00:02:03","576000","0","312559679","523882","523","0","","0"
"2021-06-23 00:02:03","576000","0","313084298","524619","523","0","","0"
"2021-06-24 00:02:03","577000","1000","313574681","490383","523","0","","0"
"2021-06-25 00:02:03","577000","0","314031434","456753","523","0","","0"
"2021-06-26 00:02:03","576000","-1000","314391756","360322","524","1","","0"
"2021-06-27 00:02:03","576000","0","314744230","352474","524","0","","0"
"2021-06-28 00:02:03","576000","0","315096043","351813","524","0","","0"
"2021-06-29 00:02:03","576000","0","315414157","318114","524","0","","0"
"2021-06-30 00:02:03","576000","0","315592876","178719","524","0","","0"
"2021-07-01 00:02:03","576000","0","315809784","216908","523","-1","","0"
"2021-07-02 00:02:03","576000","0","315996787","187003","523","0","","0"
"2021-07-03 00:02:04","576000","0","315744568","-252219","523","0","","0"
"2021-07-04 00:02:03","576000","0","315982333","237765","523","0","","0"
"2021-07-05 00:02:03","576000","0","316213922","231589","523","0","","0"
"2021-07-06 00:02:04","576000","0","316391318","177396","523","0","","0"
"2021-07-07 00:02:03","576000","0","316717105","325787","523","0","","0"
"2021-07-08 00:02:04","576000","0","316901835","184730","523","0","","0"
"2021-07-09 00:02:04","576000","0","317078148","176313","523","0","","0"
"2021-07-10 00:02:03","576000","0","317274606","196458","523","0","","0"
"2021-07-11 00:02:03","575000","-1000","317437081","162475","524","1","","0"
"2021-07-12 00:02:02","573000","-2000","318140682","703601","524","0","","0"
"2021-07-13 00:02:02","573000","0","318881485","740803","524","0","","0"
"2021-07-14 00:02:03","572000","-1000","319382757","501272","524","0","","0"
"2021-07-15 00:02:03","572000","0","319648004","265247","524","0","","0"
"2021-07-16 00:02:03","572000","0","319855953","207949","524","0","","0"
"2021-07-17 00:02:02","571000","-1000","320028792","172839","524","0","","0"
"2021-07-18 00:02:02","571000","0","320188907","160115","524","0","","0"
"2021-07-19 00:02:03","571000","0","320335950","147043","524","0","","0"
"2021-07-20 00:02:03","571000","0","320496382","160432","524","0","","0"
"2021-07-21 00:02:02","570000","-1000","320606041","109659","501","-23","","0"
"2021-07-22 00:02:02","570000","0","320739270","133229","501","0","","0"
"2021-07-23 00:02:03","570000","0","320868286","129016","501","0","","0"
"2021-07-24 00:02:02","570000","0","310460296","-10407990","501","0","","0"
"2021-07-25 00:02:03","569000","-1000","310639390","179094","501","0","","0"
"2021-07-26 00:02:02","569000","0","310779734","140344","501","0","","0"
"2021-07-27 00:02:02","569000","0","310943385","163651","501","0","","0"
"2021-07-28 00:02:03","569000","0","311051939","108554","501","0","","0"
"2021-07-29 00:02:02","569000","0","311150108","98169","501","0","","0"
"2021-07-30 00:02:02","568000","-1000","311274671","124563","501","0","","0"
"2021-07-31 00:02:03","568000","0","311412307","137636","501","0","","0"
"2021-08-01 00:02:02","568000","0","311541365","129058","501","0","","0"
"2021-08-02 00:02:02","568000","0","311674055","132690","501","0","","0"
"2021-08-03 00:02:02","568000","0","311814630","140575","501","0","","0"
"2021-08-04 00:02:03","567000","-1000","311942936","128306","501","0","","0"
"2021-08-05 00:02:02","567000","0","312008237","65301","501","0","","0"
"2021-08-06 00:02:02","567000","0","312087563","79326","501","0","","0"
"2021-08-07 00:02:02","567000","0","312142860","55297","501","0","","0"
"2021-08-08 00:02:02","567000","0","312241827","98967","501","0","","0"
"2021-08-09 00:02:02","566000","-1000","312312863","71036","501","0","","0"
"2021-08-10 00:02:03","566000","0","312395570","82707","501","0","","0"
"2021-08-11 00:02:03","566000","0","312395570","0","501","0","","0"
"2021-08-12 00:02:02","565000","-1000","312526986","131416","501","0","","0"
"2021-08-13 00:02:02","565000","0","312592274","65288","501","0","","0"
"2021-08-14 00:02:03","565000","0","312672150","79876","501","0","","0"
"2021-08-15 00:02:03","564000","-1000","312764512","92362","501","0","","0"
"2021-08-16 00:02:04","564000","0","312864540","100028","501","0","","0"
"2021-08-17 00:02:03","564000","0","312913800","49260","501","0","","0"
"2021-08-18 00:02:02","563000","-1000","313040721","126921","501","0","","0"
"2021-08-19 00:02:02","563000","0","313114991","74270","501","0","","0"
"2021-08-20 00:02:02","563000","0","313194695","79704","501","0","","0"
"2021-08-21 00:02:02","563000","0","313269905","75210","501","0","","0"
"2021-08-22 00:02:07","562000","-1000","313331327","61422","501","0","","0"
"2021-08-23 00:02:02","562000","0","313393280","61953","501","0","","0"
"2021-08-24 00:02:03","562000","0","313467798","74518","455","-46","","0"
"2021-08-25 00:02:02","561000","-1000","313541453","73655","455","0","","0"
"2021-08-26 00:02:03","561000","0","313588778","47325","455","0","","0"
"2021-08-27 00:02:02","561000","0","287406934","-26181844","455","0","","0"
"2021-08-28 00:02:03","561000","0","287482507","75573","455","0","","0"
"2021-08-29 00:02:02","560000","-1000","287555578","73071","455","0","","0"
"2021-08-30 00:02:03","560000","0","287630441","74863","455","0","","0"
"2021-08-31 00:02:02","560000","0","287666506","36065","455","0","","0"
"2021-09-01 00:02:03","560000","0","287766088","99582","455","0","","0"